Flag for Canada Weather past 2 weeks in Edmonton, Alberta, Canada

Now
39 °F

Clear.


Feels Like: 34 °F
Forecast: 35 / 54 °F
Wind: 7 mph from West

Location: Edmonton Municipal

Current Time: Oct 1, 2014 at 8:48:44 AM

Latest Report: Oct 1, 2014 at 8:00 AM


Visibility: 9 mi

Pressure: 29.87 "Hg

Humidity: 81%

Dew point: 34 °F

Location of EdmontonLocation

Historic Weather in Edmonton — Graph

°F

Edmonton temperature yesterday

Maximum temperature yesterday: 57 °F (at 2:00 PM)
Minimum temperature yesterday: 46 °F (at 2:00 AM)
Average temperature yesterday: 52 °F

Past Weeks' High & Low Weather Summary

 TemperatureHumidityPressure
High84 °F (Sep 22, 4:00 PM)100% (Sep 26, 9:00 AM)30.48 "Hg (Sep 26, 9:00 AM)
Low37 °F (Sep 27, 7:03 AM)25% (Sep 22, 4:00 PM)29.55 "Hg (Sep 18, 5:00 AM)
Average57 °F66%29.87 "Hg
* Reported Sep 16 7:00 AM — Oct 1 7:00 AM, Edmonton, Weather by CustomWeather, © 2014

Note: Actual official high and low records may vary slightly from our data, if they occured in-between our weather recording intervals... More about our weather records

Advertising

Edmonton weather history for previous 24 hours

 ConditionsComfort  
Time TempWeatherWind HumidityBarometerVisibility
7:00 AM
Oct 1
39 °FPassing clouds.8 mph87%29.86 "Hg9 mi
6:00 AM39 °FClear.7 mph87%29.86 "Hg9 mi
5:00 AM39 °FClear.3 mph87%29.85 "Hg9 mi
4:00 AM41 °FClear.6 mph81%29.84 "Hg9 mi
3:00 AM41 °FClear.6 mph81%29.84 "Hg9 mi
2:00 AM43 °FClear.8 mph81%29.84 "Hg9 mi
1:00 AM43 °FClear.3 mph81%29.83 "Hg9 mi
12:00 AM43 °FClear.5 mph81%29.84 "Hg9 mi
11:00 PM
Sep 30
46 °FClear.8 mph71%29.84 "Hg9 mi
10:00 PM46 °FClear.7 mph71%29.83 "Hg9 mi
9:00 PM48 °FPassing clouds.8 mph62%29.82 "Hg9 mi
8:00 PM54 °FScattered clouds.8 mph54%29.80 "Hg9 mi
7:00 PM55 °FOvercast.16 mph51%29.78 "Hg9 mi
6:00 PM57 °FPartly sunny.22 mph48%29.76 "Hg9 mi
5:00 PM57 °FScattered clouds.18 mph51%29.73 "Hg9 mi
4:00 PM57 °FPassing clouds.20 mph55%29.72 "Hg9 mi
3:00 PM57 °FSunny.18 mph55%29.71 "Hg9 mi
2:00 PM57 °FSunny.17 mph55%29.71 "Hg9 mi
1:00 PM55 °FSunny.17 mph59%29.71 "Hg9 mi
12:00 PM54 °FPartly sunny.16 mph63%29.71 "Hg9 mi
11:00 AM52 °FCloudy.17 mph67%29.69 "Hg9 mi
9:00 AM50 °FOvercast.15 mph82%29.66 "Hg9 mi
8:00 AM50 °FLight rain. Overcast.12 mph94%29.65 "Hg9 mi
Weather by CustomWeather, © 2014

See weather overviewHow to use our weather pages